Dewpoint
59 59 58 58 58 58 57 57 57 58 58 58 58 59 59 59 58 50 19 29 53 73 70 64 62 65 65 64 65 63 56 50 50 47 49 52 49 53 54 52 55 58 58 61 65
59 59 58 58 58 58 58 58 57 57 58 58 58 59 58 59 49 33 49 62 70 73 60 62 61 64 64 61 61 56 52 50 53 53 50 51 50 52 50 52 57 61 63 65 65
58 58 58 58 58 58 57 57 57 57 57 58 58 59 59 58 42 36 61 68 72 68 57 60 61 61 59 61 61 57 51 54 52 51 51 51 51 52 49 50 55 59 62 64 64
60 58 58 58 58 57 57 57 57 56 57 58 58 59 59 53 17 44 66 70 73 63 55 55 59 58 56 55 60 53 55 54 54 51 51 50 52 50 51 52 55 61 62 63 63
60 59 58 58 57 57 57 57 56 56 56 58 58 59 50 31 33 57 72 71 63 51 43 51 55 57 54 56 57 53 53 54 54 53 50 52 51 50 53 56 59 62 62 62 62
59 59 58 58 58 57 57 56 56 55 56 58 58 59 41 26 47 59 57 41 36 32 25 48 51 55 55 55 55 54 53 53 52 52 51 50 51 51 54 58 60 61 61 61 62
59 59 57 58 58 58 57 56 56 56 57 58 59 54 30 32 50 46 41 32 31 31 25 50 48 40 55 55 57 54 50 50 51 50 50 51 49 50 54 57 59 59 61 61 62
58 58 58 57 57 57 57 55 56 57 57 57 56 48 14 37 46 33 32 23 35 37 46 45 40 37 53 55 55 50 50 48 52 52 51 49 47 52 54 55 57 58 59 61 62
58 58 57 56 56 56 55 56 57 57 57 58 48 41 27 47 36 36 36 19 28 35 41 41 32 25 26 40 48 49 46 47 49 53 50 50 50 52 53 53 54 55 57 58 59
57 57 57 56 56 55 55 55 58 57 56 56 49 34 31 25 20 38 40 37 34 35 28 23 24 24 26 34 41 45 46 48 48 50 51 50 52 53 53 52 53 53 54 56 56
57 57 56 56 55 55 52 47 35 30 40 26 28 28 28 30 29 28 39 38 26 24 21 21 21 27 25 31 34 41 46 45 49 52 51 49 52 52 53 53 52 52 53 54 55
57 57 57 55 55 55 48 34 35 34 30 30 31 32 34 34 20 25 33 29 24 25 20 19 26 21 18 23 20 17 19 23 49 53 51 51 50 53 53 53 53 52 52 53 53
57 57 56 55 55 48 40 36 41 37 28 23 25 26 25 29 24 25 26 23 22 20 18 20 17 18 17 16 15 15 20 38 45 52 51 51 48 51 54 54 54 53 53 53 53
57 56 56 54 45 46 35 39 42 36 26 21 23 23 24 23 20 25 25 22 19 21 19 18 18 16 16 15 15 19 16 27 49 48 41 49 40 49 50 52 54 54 54 54 55
56 56 55 54 50 37 36 43 35 28 17 23 23 18 16 19 18 22 24 21 18 19 18 13 12 15 14 14 17 17 20 29 47 46 44 47 44 44 49 50 51 53 54 55 57
56 55 55 52 50 45 45 37 29 22 17 22 14 12 15 14 13 20 21 20 20 16 16 16 14 11 9 13 16 28 37 41 46 44 35 38 43 39 46 52 55 55 53 55 56
55 54 53 53 37 48 43 32 19 18 19 15 9 8 12 14 15 17 21 20 18 18 18 13 11 11 12 11 20 25 28 30 35 37 30 41 43 42 51 57 59 60 59 56 56
54 53 53 53 52 49 35 28 20 19 17 24 12 10 6 13 14 15 20 20 15 12 13 12 9 12 13 12 13 25 22 24 30 30 32 37 37 38 57 60 60 61 61 57 55
53 50 50 49 51 50 34 18 15 24 26 24 14 13 12 12 13 12 17 16 19 16 14 12 10 14 15 18 17 23 26 25 23 24 27 30 34 36 54 54 58 60 62 62 57
53 48 43 49 49 36 32 27 24 28 25 23 19 14 14 12 12 13 16 16 15 15 15 16 10 10 12 14 15 22 24 18 24 24 23 23 26 27 47 55 59 60 62 63 63
51 46 42 44 37 35 23 23 23 26 29 29 21 22 15 13 13 12 14 13 12 12 13 12 12 12 14 16 15 19 19 21 20 22 19 19 20 51 56 58 60 60 61 62 63
51 38 45 41 34 32 28 28 32 25 32 32 29 29 21 17 14 14 14 14 9 12 12 15 10 12 9 14 17 12 17 19 18 24 22 22 21 59 60 60 61 61 62 63 64
52 49 50 40 30 31 31 31 31 33 33 32 26 25 23 20 20 16 15 12 12 13 19 17 14 10 14 14 19 17 16 16 18 20 24 17 19 59 60 60 61 61 62 63 64
51 42 44 43 41 33 33 35 33 37 35 35 31 28 24 21 23 20 19 19 19 16 48 29 16 16 7 13 18 21 21 20 14 14 17 16 24 56 58 60 61 62 63 64 64
52 46 45 42 43 45 42 40 37 37 38 38 32 33 30 26 23 21 22 22 25 43 29 20 22 21 15 13 19 17 18 21 21 19 15 16 26 46 57 60 60 62 63 60 60
51 49 50 48 47 45 43 41 39 37 38 35 36 38 35 31 27 26 25 26 26 36 26 21 24 24 17 17 18 16 18 24 26 24 23 34 34 50 59 59 59 60 59 61 60
53 53 51 45 46 43 42 42 41 41 41 39 41 40 35 33 29 31 26 26 25 30 28 26 26 26 17 20 21 18 19 29 37 41 36 36 40 57 58 59 59 58 59 59 61
Lifted_Index
11 11 12 13 13 14 15 15 15 15 15 15 15 15 15 15 14 13 11 9 6 1 -1 -1 -2 -2 -2 -3 -3 -2 -2 -1 -1 -0 0 1 1 1 1 1 0 -0 -0 -0 -0
11 11 12 13 14 14 15 15 15 15 15 15 15 15 14 14 13 12 11 8 4 1 -1 -1 -1 -2 -2 -2 -2 -2 -1 -1 -1 -0 0 1 1 1 1 1 0 -1 -1 -1 -0
11 12 12 13 14 14 15 15 16 16 16 15 15 14 14 13 11 11 10 7 3 1 0 -1 -1 -2 -2 -2 -2 -2 -1 -1 -0 0 1 1 1 1 1 1 0 -1 -1 -1 -1
11 11 12 13 13 14 15 16 16 16 16 15 15 14 14 12 10 9 8 4 2 2 1 -0 -1 -2 -2 -2 -2 -2 -2 -1 -1 0 1 1 1 1 1 1 1 -0 -1 -1 -1
11 11 12 12 13 14 15 15 16 17 16 15 14 14 13 11 9 7 6 5 5 3 1 0 -0 -1 -1 -1 -2 -1 -1 -1 -1 0 1 1 1 1 1 1 0 -0 -1 -1 -1
10 11 12 12 13 14 15 16 16 17 16 15 14 13 12 10 9 8 8 9 9 6 3 1 1 0 -1 -1 -1 -1 -1 -1 -1 -0 0 0 1 1 1 1 0 -0 -0 -1 -1
10 11 11 12 13 14 15 16 16 16 16 15 14 13 11 10 10 10 11 12 12 8 5 4 4 3 0 -1 -1 -1 -1 -1 -1 -1 -0 -0 0 1 1 1 1 0 -0 -0 -0
11 11 12 12 13 14 15 15 16 16 15 14 14 12 11 10 10 11 12 12 11 9 6 6 6 5 2 -0 -1 -1 -1 -1 -1 -1 -1 -0 0 1 1 1 1 1 0 0 0
11 11 12 13 14 15 15 14 15 15 15 14 13 12 11 11 11 11 11 11 10 8 7 7 7 5 3 1 -1 -1 -1 -1 -1 -1 -1 -1 -0 1 1 2 2 2 1 1 1
11 11 12 13 14 14 14 13 14 14 14 13 12 12 11 11 11 11 10 9 8 7 7 7 6 4 2 1 0 -0 -0 -1 -2 -1 -1 -1 -1 0 1 1 2 2 2 2 2
11 11 12 13 14 14 13 13 13 13 13 12 12 12 12 12 12 11 9 8 7 6 6 5 4 3 2 1 1 1 0 -1 -1 -2 -2 -1 -1 -1 0 1 1 2 2 2 3
11 11 12 13 14 14 14 14 13 13 12 12 12 12 13 12 11 10 9 8 7 6 5 5 4 3 2 2 1 1 0 -0 -1 -1 -2 -2 -1 -1 -1 0 1 1 2 2 2
10 11 12 13 14 14 14 14 14 13 11 11 12 12 12 12 11 10 10 9 8 7 6 6 5 4 3 2 1 1 1 1 -0 -1 -1 -1 -1 -1 -1 -0 0 1 1 1 2
10 10 11 12 13 13 14 14 14 12 9 9 11 12 12 12 11 10 10 10 9 7 7 6 6 6 5 4 2 1 1 1 -0 -1 -0 -0 -1 -1 -1 -1 -0 0 0 1 1
10 10 11 12 12 13 13 14 13 10 7 8 11 12 12 12 11 11 10 10 10 9 7 7 6 6 6 5 3 2 1 1 0 -0 0 0 -0 -1 -1 -1 -1 -1 -0 -0 0
10 10 11 12 12 12 13 13 11 7 5 7 10 11 11 11 11 11 10 10 10 9 8 7 7 6 6 6 5 3 2 1 1 1 1 1 -0 -0 -1 -2 -2 -2 -1 -1 -1
10 10 11 11 12 13 13 11 8 6 6 8 9 9 10 10 10 10 10 9 9 8 7 6 6 7 6 6 5 4 3 2 1 1 2 1 0 -1 -2 -3 -3 -3 -2 -1 -1
10 10 10 11 12 13 12 9 6 6 7 8 9 9 9 9 10 10 9 9 9 8 6 5 5 6 6 6 5 4 4 3 2 2 2 2 1 -0 -2 -4 -4 -4 -3 -2 -1
10 10 10 11 12 12 10 7 6 7 8 8 8 8 8 8 9 9 9 9 9 8 7 6 5 6 7 6 5 5 4 4 3 2 2 3 3 1 -2 -4 -4 -4 -3 -2 -2
10 9 10 12 12 11 9 7 8 9 9 8 8 7 7 8 8 8 8 8 9 9 8 7 6 6 7 6 6 5 4 4 3 2 2 3 3 2 -1 -4 -4 -4 -4 -3 -3
9 9 10 11 11 10 8 8 9 10 9 9 8 8 8 8 8 8 8 8 8 8 8 8 7 6 6 6 6 5 4 4 3 3 2 2 2 0 -2 -4 -4 -4 -4 -3 -3
9 9 9 10 10 8 8 8 9 10 9 9 8 8 8 8 8 7 7 7 8 8 8 8 7 5 5 6 6 5 5 4 4 3 3 3 2 -1 -3 -4 -4 -4 -4 -4 -4
9 9 9 9 8 8 8 8 9 9 9 8 8 9 9 8 8 8 7 7 7 7 7 7 6 5 5 5 5 5 5 4 4 3 3 3 2 -1 -3 -3 -4 -4 -4 -4 -4
10 9 9 9 8 8 8 7 8 8 8 7 8 8 8 8 8 8 8 7 7 6 6 6 5 5 4 4 5 5 5 4 4 3 3 3 2 -1 -2 -3 -3 -4 -4 -4 -4
9 9 8 8 8 8 7 7 7 7 7 7 7 7 7 7 8 8 8 7 7 6 5 5 5 4 4 4 4 4 4 4 4 3 3 3 2 -0 -2 -3 -3 -3 -3 -3 -3
8 8 8 7 7 7 7 6 6 6 6 5 6 6 6 6 6 7 7 7 6 6 5 4 4 3 3 3 4 4 4 4 4 3 3 3 1 -1 -3 -3 -3 -3 -3 -2 -3
8 8 7 7 7 6 6 5 5 5 5 5 5 5 5 5 5 6 6 6 6 5 5 4 3 3 2 3 3 3 4 3 3 2 2 2 0 -2 -3 -4 -3 -3 -2 -2 -2